Simultaneous Nadir Overpasses (SNOs) Predictions

Prediction of SNOs between METOP-B and TERRA Satellite Orbit:

Table of predicted SNOs for the next 14.0 days since TLE Epoch: 11/19/2022
Index Date (METOP-B) Time (METOP-B) Lat,Lon (METOP-B) SZA (METOP-B ) Date (TERRA) Time (TERRA) Lat,Lon (TERRA) SZA (TERRA ) Distance(km) Time Diff (sec)
1 11/19/2022 15:54:43 -81.01, 158.31 77.40 11/19/2022 15:54:54 -81.01, 158.41 77.39 1.82 11
2 11/19/2022 16:45:20 81.06, -33.05 102.78 11/19/2022 16:44:14 81.06, -33.22 102.74 2.86 66
3 11/22/2022 08:06:21 -81.02, -84.35 76.79 11/22/2022 08:06:37 -81.01, -84.49 76.81 2.59 16
4 11/22/2022 08:57:00 81.04, 83.54 103.29 11/22/2022 08:55:58 81.04, 83.50 103.26 0.94 62
5 11/25/2022 00:17:59 -81.01, 32.59 76.28 11/25/2022 00:18:19 -81.01, 32.50 76.29 1.63 20
6 11/25/2022 01:08:38 81.04,-159.53 103.80 11/25/2022 01:07:40 81.03,-159.53 103.77 0.44 58
7 11/27/2022 16:29:38 -81.01, 149.49 75.83 11/27/2022 16:30:02 -81.00, 149.39 75.84 1.99 24
8 11/27/2022 17:20:16 81.04, -42.27 104.30 11/27/2022 17:19:22 81.05, -42.31 104.27 0.69 54
9 11/30/2022 08:41:17 -81.00, -93.65 75.43 11/30/2022 08:41:44 -81.00, -93.48 75.40 3.12 27
10 11/30/2022 09:31:55 81.03, 74.58 104.70 11/30/2022 09:31:05 81.02, 74.46 104.66 2.28 50
11 12/03/2022 00:52:55 -81.00, 23.53 75.04 12/03/2022 00:53:26 -81.00, 23.54 75.02 0.32 31



Historial Predications of SNOs between METOP-B and TERRA
